Flag for USA

Past Weather in 33°54'31.6"N, 84°27'49.2"W, USA — Yesterday and Last 2 Weeks

Currently: 50 °F. Fog. (Weather station: Fulton County Airport-Brown Field, USA). See more current weather

Past Weather in 33°54'31.6"N, 84°27'49.2"W — Graph

°F

33°54'31.6"N, 84°27'49.2"W Temperature Yesterday

Maximum temperature yesterday: 67 °F (at 1:53 pm)
Minimum temperature yesterday: 54 °F (at 4:53 am)
Average temperature yesterday: 60 °F

High & Low Weather Summary for the Past Weeks

 TemperatureHumidityPressure
High72 °F (Jan 19, 2:53 pm)100% (Jan 17, 8:22 pm)30.45 "Hg (Jan 17, 8:22 pm)
Low26 °F (Jan 24, 5:53 am)21% (Jan 28, 3:53 pm)29.69 "Hg (Jan 25, 1:53 pm)
Average50 °F76%30.09 "Hg
* Reported Jan 17 7:53 am — Feb 1 6:53 am, 33°54'31.6"N, 84°27'49.2"W. Weather by CustomWeather, © 2023

Note: Actual official high and low records may vary slightly from our data, if they occured in-between our weather recording intervals... More about our weather records

33°54'31.6"N, 84°27'49.2"W Weather History for the Previous 24 Hours

Scroll right to see more
 ConditionsComfort  
Time TempWeatherWind HumidityBarometerVisibility
6:53 am
Wed, Feb 1
51 °FLow clouds.5 mph96%30.16 "Hg10 mi
6:15 am52 °FLow clouds.7 mph93%30.17 "Hg10 mi
5:53 am52 °FLow clouds.10 mph97%30.15 "Hg10 mi
4:53 am53 °FFog.7 mph96%30.13 "Hg6 mi
4:14 am54 °FLow clouds.6 mph100%30.13 "Hg10 mi
3:53 am55 °FLow clouds.6 mph96%30.11 "Hg10 mi
2:53 am56 °FLight rain. Low clouds.No wind97%30.11 "Hg10 mi
1:53 am56 °FMostly cloudy.No wind97%30.12 "Hg10 mi
12:53 am56 °FOvercast.No wind97%30.14 "Hg10 mi
12:14 am57 °FLow clouds.No wind93%30.16 "Hg10 mi
11:53 pm
Tue, Jan 31
56 °FLight rain. Mostly cloudy.No wind97%30.16 "Hg10 mi
11:32 pm56 °FLight rain. Fog.7 mph97%30.17 "Hg5 mi
10:53 pm62 °FLow clouds.10 mph93%30.13 "Hg10 mi
10:43 pm62 °FOvercast.7 mph93%30.14 "Hg10 mi
10:21 pm63 °FLight rain. Mostly cloudy.3 mph93%30.14 "Hg10 mi
9:53 pm63 °FOvercast.5 mph93%30.13 "Hg10 mi
8:53 pm63 °FMostly cloudy.6 mph93%30.12 "Hg10 mi
8:27 pm63 °FMostly cloudy.3 mph93%30.12 "Hg10 mi
8:00 pm64 °FOvercast.5 mph90%30.12 "Hg10 mi
6:33 pm65 °FMostly cloudy.5 mph87%30.13 "Hg10 mi
5:53 pm65 °FOvercast.6 mph85%30.10 "Hg10 mi
5:22 pm66 °FOvercast.7 mph81%30.10 "Hg10 mi
4:53 pm66 °FMore clouds than sun.8 mph81%30.09 "Hg10 mi
4:01 pm67 °FPartly sunny.7 mph79%30.09 "Hg10 mi
3:35 pm66 °FScattered clouds.7 mph81%30.09 "Hg10 mi
2:53 pm66 °FCloudy.8 mph81%30.09 "Hg10 mi
1:53 pm67 °FOvercast.6 mph79%30.10 "Hg10 mi
12:53 pm65 °FOvercast.7 mph81%30.14 "Hg10 mi
12:13 pm63 °FOvercast.7 mph84%30.17 "Hg10 mi
11:53 am61 °FOvercast.5 mph90%30.18 "Hg10 mi
10:53 am59 °FMostly cloudy.6 mph90%30.19 "Hg10 mi
10:00 am57 °FLow clouds.5 mph96%30.19 "Hg10 mi
8:53 am56 °FFog.3 mph97%30.17 "Hg5 mi
8:03 am55 °FFog.3 mph100%30.16 "Hg1 mi
Weather by CustomWeather, © 2023

See weather overview